Regional Weather Roundup
Issued by NWS

Home | Current Version | Previous Version | Graphics & Text | Print | Product List | Glossary On
Versions: 1 2 3 4 5 6 7 8 9 10 11 12 13 14 15 16 17 18 19 20 21 22 23 24 25 26 27 28 29 30 31 32 33 34 35 36 37 38 39 40 41 42 43 44 45 46 47 48 49 50
000
ASUS45 KTFX 030910
RWRMT
MONTANA REGIONAL WEATHER ROUNDUP
NATIONAL WEATHER SERVICE GREAT FALLS MT
300 AM MDT FRI JUL 03 2015

NOTE: "FAIR" INDICATES FEW OR NO CLOUDS BELOW 12000 FEET WITH NO
SIGNIFICANT WEATHER AND/OR OBSTRUCTIONS TO VISIBILITY.

MTZ001>007-043-031000-
WEST OF THE DIVIDE

CITY           SKY/WX    TMP DP  RH WIND       PRES   REMARKS
KALISPELL      SUNNY     58  52  80 W5        29.96S
MISSOULA       CLEAR     65  46  50 CALM      29.99S
BUTTE          CLEAR     60  45  57 CALM      30.14S
MULLAN PASS    CLEAR     65  38  36 NW3       30.17F
DEER LODGE       N/A     55  46  71 W3        30.12S
EUREKA           N/A     63  46  55 E3        29.95S
HAMILTON         N/A     63  46  55 S6        30.01S
PLAINS           N/A     62  47  58 CALM      29.97S
RONAN            N/A     60  53  77 CALM      30.02S
$$

MTZ008-052>055-031000-
SOUTHWEST MONTANA

CITY           SKY/WX    TMP DP  RH WIND       PRES   REMARKS
BOZEMAN        CLEAR     60  50  69 SW3       30.08S
DILLON         CLEAR     59  43  55 SE6       30.10F
W YELLOWSTONE  CLEAR     45  39  81 CALM      30.24S
THREE FORKS      N/A     61  61 100 CALM      30.07S
$$

MTZ009-010-012-014-046-048-049-054-031000-
EAST SLOPES AND CENTRAL MONTANA

CITY           SKY/WX    TMP DP  RH WIND       PRES   REMARKS
CUT BANK       CLEAR     64  48  56 SE9       30.02F
GREAT FALLS    CLEAR     62  49  62 CALM      30.02S
MALMSTROM AFB  CLEAR     65  50  58 SE5       30.02S
HELENA         CLEAR     66  48  52 W6        30.05R
CONRAD           N/A     55  52  90 NE1       30.05F
$$

MTZ011-013-016-021-045-047-050-051-031000-
NORTH CENTRAL MONTANA

CITY           SKY/WX    TMP DP  RH WIND       PRES   REMARKS
HAVRE          CLEAR     62  53  72 NE6       29.99S HAZE
LEWISTOWN      PTCLDY    62  51  67 SE6       30.09F HAZE
CHINOOK          N/A     63  55  77 E7        30.00F
FORT BENTON      N/A     68  54  60 CALM      30.00S
$$

MTZ017>020-022>027-061-062-031000-
NORTHEAST MONTANA

CITY           SKY/WX    TMP DP  RH WIND       PRES   REMARKS
GLASGOW        PTCLDY    61  54  77 CALM      30.02S HAZE
JORDAN           N/A     57  53  86 W5        30.04S
SIDNEY         PTCLDY    63  57  82 CALM      30.02S
WOLF POINT     PTCLDY    63  59  87 CALM      30.02S FOG
MALTA            N/A     59  51  74 CALM      29.99S
PLENTYWOOD       N/A     61  57  88 NW3       30.02F
POPLAR           N/A     61  61 100 CALM      30.02S
SCOBEY           N/A     56  50  80 CALM      30.02F
$$

MTZ028>42-056>058-031000-
SOUTHCENTRAL AND SOUTHEAST MONTANA

CITY           SKY/WX    TMP DP  RH WIND       PRES   REMARKS
BAKER          CLEAR     60  57  89 CALM      30.06F FOG
BILLINGS       CLEAR     65  50  58 N6        30.07F
LIVINGSTON     CLEAR     59  50  72 W3        30.12S
MILES CITY     CLEAR     61  54  77 NW6       30.03F
EKALAKA          N/A     62  54  75 SE5       30.06S
FORSYTH          N/A     63  55  77 SE3       30.03F
LAUREL           N/A     64  47  54 N2        30.05F
ROUNDUP          N/A     61  51  69 MISG      29.99F
$$

REGIONAL REPORTS...DAKOTAS

CITY           SKY/WX    TMP DP  RH WIND       PRES   REMARKS
WILLISTON      PTCLDY    60  59  96 CALM      30.01F FOG
MINOT          CLOUDY    61  59  93 SW6       29.97S FOG
DICKINSON      CLEAR     58  56  93 S7        30.02F FOG
BEACH          PTSUNNY   57  57 100 CALM      30.05F FOG
CROSBY         FAIR      59  59 100 W5        30.02S FOG
BISMARCK       CLOUDY    63  61  93 W6        30.00R FOG
GRAND FORKS    CLOUDY    62  61  96 NW5       29.89S FOG
FARGO          CLEAR     62  59  90 S7        29.91S
BUFFALO SD       N/A     60  56  86 W8        30.01F
RAPID CITY     CLEAR     60  56  86 NW8       30.08F
$$

REGIONAL REPORTS...WYOMING/IDAHO/WASHINGTON

CITY           SKY/WX    TMP DP  RH WIND       PRES   REMARKS
GILLETTE       CLEAR     57  52  83 S9        30.13F
SHERIDAN       CLEAR     55  50  83 CALM      30.09F
BUFFALO WY     PTCLDY    58  51  78 SW5       30.16S
CODY           CLEAR     63  48  59 S5        30.16S
YELLOWSTONE LA   N/A     45  39  79 CALM      30.34F
IDAHO FALLS    CLEAR     55  51  86 N7        30.03S
SALMON         CLEAR     57  43  58 CALM      30.03R
BOISE          CLEAR     74  48  39 SW3       29.90S
SPOKANE        MOCLDY    75  41  29 CALM      29.92R
$$

REGIONAL REPORTS...ALBERTA

CITY           SKY/WX    TMP DP  RH WIND       PRES   REMARKS
EDMONTON       CLEAR     68  54  60 SW7       29.87F
CALGARY        PTCLDY    64  57  77 S5        29.98F
LETHBRIDGE     CLEAR     57  52  82 S6        29.95F
MEDICINE HAT   MOCLDY    72  55  56 S7        29.95F HAZE
WATERTON GATE    N/A     57  50  77 SW8         N/A
CARDSTON         N/A     59  54  82 N2          N/A
ONEFOUR          N/A     59  54  82 E12         N/A
$$

REGIONAL REPORTS...SASKATCHEWAN

CITY           SKY/WX    TMP DP  RH WIND       PRES   REMARKS
SWIFT CURRENT  MOCLDY    61  57  88 SW9       30.01S FOG
REGINA         PTCLDY    57  55  94 S5        30.00R SMOKE
SASKATOON      PTCLDY    59  55  88 S2        29.97S
CYPRESS HILLS    N/A     57  52  82 S6          N/A
VAL MARIE        N/A     50  48  93 NE6         N/A
ROCKGLEN         N/A     59  57  94 SW3         N/A
ASSINIBOIA       N/A     59  57  94 S6          N/A
$$



USA.gov is the U.S. government's official web portal to all federal, state and local government web resources and services.